Breeders Fall Classic - HANDS ON INVENTORY

Station: INVENTORY - T Race

Distance: 10 Miles    

Release: 12-Jul-2022 09:13

Weather Release:    Arrival:

Wind at Release:     Wind at Arrival:

Temp at Release: °    Temp at Arrival: °

Lofts: 66

Birds: 215

Clocked: 197

Good Luck to Everyone!
Drops Pos Breeder Pigeon Name Color Sex Ent Arrival Speed To Win Elg PdColored
1 Liberty Loft - MA 26891-AU22-FOYS BB H 1 11:38:15.80 121.159 00:00:00 Yes
2 Steve Zurcher - OH 0247-AU22-IHC SILV H 1 11:38:35.40 120.887 00:00:20 Yes
3 Steve Zurcher - OH 0241-AU22-IHC BB H 2 11:38:56.90 120.591 00:00:41 Yes
4 Hale Nūnū - VA 15042-AU22-JEDD BB H 1 11:39:17.90 120.302 00:01:02 Yes
5 Chicagoland - OH 11210-AU22-CHGO BC H 0 11:39:36.00 120.055 Yes
6 Jack The Reaper Loft - CA 1261-AU22-FMT Khaleesi BB H 1 11:39:53.70 119.813 00:01:38 Yes
7 Chicagoland - OH 11208-AU22-CHGO BC H 0 11:40:12.60 119.557 Yes
8 Jones Family Loft - TX 2341-AU22-JFL SLTW H 1 11:40:27.80 119.352 00:02:12 Yes
9 R. Burns - KS 0322-AU22-SWK BCPD H 1 11:40:45.20 119.117 00:02:29 Yes
10 Top Perch - MD 23332-IF22-SBS BBSP H 1 11:41:02.10 118.891 00:02:46 Yes
11 Racing Pigeon Mall - WA 0200-AU22-RPM BLK H 1 11:41:18.50 118.672 00:03:03 Yes
12 Mitch Zurker - OH 0399-AU22-IHC BC H 1 11:41:36.30 118.435 00:03:20 Yes
13 Callahan Loft - MO 22138-AU22-AA BB H 1 11:41:55.30 118.183 00:03:39 Yes
14 Wing And A Prayer-Wi - WI 2528-AU22-MPC BB H 1 11:44:19.60 116.305 00:06:04 Yes
15 Tomes Loft - OH 0326-AU22-IHC BCPW H 1 11:45:34.30 115.356 00:07:18 Yes
16 Rich K - OH 0583-AU22-IHC DCWF H 1 11:45:53.80 115.110 00:07:38 Yes
17 CAN-AM LOFT - MI 22103-AU22-CAAM BC H 1 11:46:10.90 114.896 00:07:55 Yes
18 Dave Harrett - WA 18762-AU22-JEDD BB H 1 11:46:23.60 114.738 00:08:08 Yes
19 Phoenixloft - NY 8963-AU22-VITA BC H 1 11:47:27.90 113.942 00:09:12 Yes
20 Shawnie Murphy - MI 0122-AU22-CORP BC H 1 11:47:44.00 113.744 00:09:28 Yes
21 Marengo Creek Farms - GA 4133-AU22-MCF BB H 1 11:48:11.00 113.414 00:09:55 Yes
22 Marengo Creek Farms - GA 4137-AU22-MCF BB H 2 11:49:23.40 112.539 00:11:08 Yes
23 Re "s Joy - TN 0314-AU22-BAMA BB H 0 11:51:25.70 111.091 Yes
24 Alas de Oro - NV 0573-IF22-E BBPD H 1 11:51:45.50 110.860 00:13:30 Yes
25 Magic Pick Loft - OH 0127-AU22-IHC BB H 1 11:51:58.60 110.708 00:13:43 Yes
26 Salvicon - CA 0359-AU22-RBPC BB H 1 11:52:20.60 110.453 00:14:05 Yes
27 Heavenz Angel Loft - MN 29803-AU22-JEDD BC H 1 11:52:34.20 110.296 00:14:18 Yes
28 Magic Pick Loft - OH 0103-AU22-IHC BBWF H 2 11:52:53.30 110.077 00:14:37 Yes
29 Liberty Loft - MA 26830-AU22-FOYS BB H 2 11:53:24.30 109.722 00:15:09 Yes
30 Steve Mayr - NY 7699-AU22-BISN BBPD H 1 11:54:15.40 109.143 00:16:00 Yes
31 Dave Harrett - WA 18753-AU22-JEDD BC H 2 11:54:28.90 108.991 00:16:13 Yes
32 Barry Karas - MI 0508-AU22-HMC BC H 1 11:54:43.30 108.829 00:16:27 Yes
33 Frank Mowinski - OH 0560-AU22-IHC BB H 1 11:54:57.00 108.676 00:16:41 Yes
34 Liberty Loft - MA 26824-AU22-FOYS BB H 3 11:55:12.00 108.508 00:16:56 Yes
35 Nanez Family Loft - WI 0731-IF22-RR BB H 1 11:55:28.40 108.325 00:17:13 Yes
36 Rich K - OH 0582-AU22-IHC BBPW H 2 11:55:39.70 108.200 00:17:24 Yes
37 Galiano Loft - MD 0215-AU22-GAL BC H 1 11:55:57.80 108.000 00:17:42 Yes
38 Mike Hines - SD 2112-AU22-GPF Just In Time BC C 1 11:56:12.80 107.834 00:17:57 Yes
39 G.S.P Loft - CA 0089-AU22-SHEL BC H 1 11:56:41.90 107.515 00:18:26 Yes
40 Nanez Family Loft - WI 7022-AU22-NANZ BB H 2 11:57:25.60 107.039 00:19:10 Yes
41 CAN-AM LOFT - MI 22104-AU22-CAAM BB H 2 11:57:43.80 106.841 00:19:28 Yes
42 Do Drop In Loft - NC 0033-AU22-TRC BBSP H 1 11:58:01.20 106.654 00:19:45 Yes
43 Nanez Family Loft - WI 0897-IF22-R BB H 3 11:59:17.70 105.836 00:21:02 Yes
44 Jakes Loft - MI 19810-AU22-JEDD WHGZ H 0 11:59:32.70 105.677 Yes
45 Heavenz Angel Loft - MN 29805-AU22-JEDD BBPW H 2 11:59:50.10 105.493 00:21:34 Yes
46 A P C Loft - TX 22330-AU22-APC GRIZ H 1 12:00:05.00 105.337 00:21:49 Yes
47 Queen Louie - ID 2120-AU22-PNWC “Queen’s Repeat” BC H 1 12:00:20.90 105.170 00:22:05 Yes
48 A P C Loft - TX 22311-AU22-APC BB H 2 12:01:45.20 104.294 00:23:29 Yes
49 CAN-AM LOFT - MI 22105-AU22-CAAM BB H 3 12:03:47.70 103.048 00:25:32 Yes
50 Goshentown Lofts - TN 11303-AU22-NASH BB H 1 12:04:03.70 102.887 00:25:48 Yes
51 Alas de Oro - NV 0574-IF22-E BBTK H 2 12:04:23.50 102.689 00:26:08 Yes
52 New Orleans Boys - LA 22271-AU22-MET BC H 1 12:04:43.10 102.493 00:26:27 Yes
53 Wareagle Loft - AL 0833-AU22-WEL RC H 1 12:06:15.20 101.585 00:27:59 Yes
54 Shawnie Murphy - MI 0121-AU22-CORP BC H 2 12:06:29.80 101.443 00:28:14 Yes
55 Sanborn Loft - OH 0660-AU22-IHC BC H 1 12:06:42.00 101.324 00:28:26 Yes
56 Ron Pairan - OH 0253-AU22-LFO BB H 1 12:06:58.40 101.165 00:28:43 Yes
57 A P C Loft - TX 22303-AU22-APC BB H 3 12:07:16.10 100.994 00:29:00 Yes
58 New Orleans Boys - LA 22268-AU22-MET BBWF H 2 12:07:28.20 100.877 00:29:12 Yes
59 Christine Wyzer - MI 0557-AU22-HMC BBWF H 1 12:07:41.70 100.747 00:29:26 Yes
60 Lindbergh Flyers - MO 2146-AU22-NERP BB H 1 12:08:26.50 100.318 00:30:11 Yes
61 Steve Mayr - NY 7677-AU22-BISN BBTW H 2 12:08:40.20 100.188 00:30:24 Yes
62 Franklin Brothers - OH 0426-AU22-IHC BBPD H 1 12:09:19.70 99.814 00:31:04 Yes
63 Wareagle Loft - AL 0841-AU22-WEL BB H 2 12:09:32.20 99.696 00:31:16 Yes
64 Era Loft - NY 0705-AU22-BUF BBWF H 1 12:09:50.50 99.524 00:31:35 Yes
65 Queen Louie - ID 2111-AU22-PNWC “Queen’s 555 Hope” BBSP H 2 12:10:07.20 99.368 00:31:51 Yes
66 Salvicon - CA 0268-AU22-FCON BC H 2 12:10:18.80 99.259 00:32:03 Yes
67 Sanborn Loft - OH 0662-AU22-IHC BC H 2 12:10:31.40 99.142 00:32:16 Yes
68 Queen Louie - ID 2144-AU22-PNWC “Queen Dark Horse” BC H 3 12:10:45.90 99.007 00:32:30 Yes
69 Re "s Joy - TN 0306-AU22-BAMA DC H 1 12:10:58.10 98.894 00:32:42 Yes
70 Jeff Tanner - OH 33105-AU22-AA BB H 1 12:11:19.30 98.698 00:33:03 Yes
71 Galiano Loft - MD 0521-IF22-CCC GRIZ H 2 12:12:30.70 98.044 00:34:15 Yes
72 Jones Family Loft - TX 2125-AU22-JFL PENC H 2 12:12:47.20 97.894 00:34:31 Yes
73 Franklin Brothers - OH 0427-AU22-IHC BB H 2 12:13:32.40 97.485 00:35:17 Yes
74 Nestibelaloft - MI 29199-AU22-ARPU RC H 1 12:13:47.30 97.351 00:35:32 Yes
75 Wingsnwind Loft - SC 2178-AU22-GRPC DCPW H 1 12:14:02.30 97.217 00:35:46 Yes
76 Borderjumper - OR 22035-AU22-BORD Nuovo Sangue Uno BC H 1 12:14:19.10 97.067 00:36:03 Yes
77 R. Burns - KS 0328-AU22-SWK BCPD H 2 12:14:36.20 96.915 00:36:20 Yes
78 Abilene Loft - OH 0502-AU22-MVS BB H 1 12:14:48.50 96.805 00:36:33 Yes
79 Hale Nūnū - VA 0005-AU22-NUNU BBWF H 2 12:15:01.60 96.689 00:36:46 Yes
80 Trapper Bob Loft - MO 0424-AU22-TRAP BC H 1 12:15:17.20 96.551 00:37:01 Yes
81 Marengo Creek Farms - GA 4144-AU22-MCF DC H 3 12:17:55.40 95.175 00:39:40 Yes
82 Loan Tran - MA 26890-AU22-FOYS BB H 1 12:18:07.70 95.069 00:39:52 Yes
83 Salvicon - CA 0266-AU22-FCON BB H 3 12:18:19.80 94.966 00:40:04 Yes
84 Christine Wyzer - MI 0553-AU22-HMC BB H 0 12:18:32.60 94.857 Yes
85 Liberty Loft - MA 26831-AU22-FOYS BB H 4 12:18:45.10 94.750 00:40:29 Yes
86 Spirit Loft - NE 0108-AU22-SPIR BB H 1 12:18:59.00 94.632 00:40:43 Yes
87 Hale Nūnū - VA 0007-AU22-NUNU BCWT H 3 12:20:06.00 94.067 00:41:50 Yes
88 Racing Pigeon Mall - WA 0204-AU22-RPM BBPW H 2 12:20:23.50 93.921 00:42:08 Yes
89 Shawnie Murphy - MI 0120-AU22-CORP BC H 3 12:20:35.90 93.817 00:42:20 Yes
90 Top Perch - MD 23333-IF22-SBS BBSP H 2 12:20:54.00 93.667 00:42:38 Yes
91 Ivy Calvin - AZ 0710-AU22-EAV GRIZ H 1 12:21:08.80 93.544 00:42:53 Yes
92 Bluesbirds - OH 17152-AU22-AA WHGZ H 1 12:21:29.60 93.372 00:43:14 Yes
93 Ethan Pippitt - KS 51582-AU22-ARPU BB H 1 12:24:06.60 92.094 00:45:51 Yes
94 Bluesbirds - OH 17153-AU22-AA BB H 2 12:24:20.20 91.984 00:46:04 Yes
95 Wingsnwind Loft - SC 2181-AU22-GRPC DC H 2 12:24:39.30 91.832 00:46:23 Yes
96 G.S.P Loft - CA 0014-AU22-SHEL BB H 2 12:25:01.20 91.657 00:46:45 Yes
97 Racing Pigeon Mall - WA 0202-AU22-RPM DC H 3 12:25:11.30 91.577 00:46:55 Yes
98 Wareagle Loft - AL 0847-AU22-WEL BC H 0 12:25:22.70 91.486 Yes
99 Jones Family Loft - TX 2320-AU22-JFL GRIZ H 3 12:25:37.90 91.366 00:47:22 Yes
100 Bluesbirds - OH 17179-AU22-AA GRIZ H 3 12:25:53.40 91.244 00:47:38 Yes

There are 197 bird records

Note: These Race Results are unofficial and subject to change until verified by the Race Committee and declared final.